Regional Weather Roundup
Issued by NWS

Home | Current Version | Previous Version | Graphics & Text | Print | Product List | Glossary Off
Versions: 1 2 3 4 5 6 7 8 9 10 11 12 13 14 15 16 17 18 19 20 21 22 23 24 25 26 27 28 29 30 31 32 33 34 35 36 37 38 39 40 41 42 43 44 45 46 47 48 49 50

000
ASUS43 KFSD 180702
RWRSD

WEATHER ROUNDUP FOR SOUTH DAKOTA
NATIONAL WEATHER SERVICE SIOUX FALLS SD
200 AM CDT FRI APR 18 2014

NOTE: "FAIR" INDICATES FEW OR NO CLOUDS BELOW 12,000 FEET WITH NO
SIGNIFICANT WEATHER AND/OR OBSTRUCTIONS TO VISIBILITY.


SDZ001>005-009-010-012>017-180800-
NORTHWEST AND NORTH CENTRAL SOUTH DAKOTA

CITY           SKY/WX    TMP DP  RH WIND       PRES   REMARKS
FAITH            N/A     36  25  64 SE21      29.97F
MOBRIDGE       PTCLDY    36  23  59 SE18      30.08F
$$

SDZ012>016-024>037-041>051-057-063-072>074-180800-
SOUTHWEST AND SOUTH CENTRAL SOUTH DAKOTA

CITY           SKY/WX    TMP DP  RH WIND       PRES   REMARKS
RAPID CTY ARPT MOCLDY    38  33  82 SE8       29.92F
PIERRE         CLOUDY    38  26  62 SE17      30.07F
CUSTER         MOCLDY    36  32  85 NW3       29.93F
ELLSWORTH AFB  MOCLDY    40  34  79 SE10      29.90F
PHILIP         MOCLDY    34  25  69 E8        29.99F WCI  27
PINE RIDGE     CLEAR     47  37  68 S22G35    29.91F
WINNER         FAIR      45  26  47 S21G31    30.06F
$$

SDZ004>011-016>023-039-040-180800-
NORTHEAST SOUTH DAKOTA

CITY           SKY/WX    TMP DP  RH WIND       PRES   REMARKS
ABERDEEN       CLOUDY    35  21  56 SE8       30.22R WCI  29
WATERTOWN      CLOUDY    33  17  51 SE8       30.22F WCI  26
SISSETON         N/A     32  23  69 SE5       30.26S WCI  27
$$

SDZ017-020-022-023-036>040-048>070-180800-
SOUTHEAST SOUTH DAKOTA

CITY           SKY/WX    TMP DP  RH WIND       PRES   REMARKS
SIOUX FALLS    MOCLDY    35  27  72 E12       30.25S WCI  27
HURON          PTCLDY    33  23  66 SE14      30.19F WCI  23
CHAMBERLAIN      N/A     37  25  61 SE16      30.12F
MITCHELL       PTCLDY    36  26  67 SE16      30.21S
YANKTON        PTCLDY    36  27  69 E7        30.24S
$$

ABBREVIATIONS USED IN REMARKS
   TC - TEMPERATURE IN CELSIUS
  WCI - WIND CHILL INDEX
   HX - HEAT INDEX
  VSB - VISIBILITY




USA.gov is the U.S. government's official web portal to all federal, state and local government web resources and services.